Content
SEND FEEDBACK

Daily
Averages
Monthly
Summary
United States of America

NIOTA, ILLINOIS


Home > North America > United States > Illinois
Elevation: 702 feet     Latitude: 40 37N     Longitude: 091 19W

WEATHER
 
SELECT A DAY
Number of Records: 410,629;   Date Range: 4/29/95 - 10/23/14
 
SHARE

PRINT THIS DATA

[ ← Previous Day ]
WEATHER ALMANAC - JANUARY 31, 2013
[ Next Day → ]
[ °C ]   °F
Weather ElementAverageHighLow
Temperature10.3 °F21.2 °F (1:35 am)3.2 °F (7:35 pm)
Dewpoint4 °F17.6 °F (1:55 am)-5.8 °F (6:55 pm)
Humidity76 %86 % (12:35 am)61 % (5:35 pm)
Barometer30.07 in30.34 in (11:35 pm)29.84 in (12:35 am)
Wind Speed16.2 mph24.2 mph (6:35 pm)
Wind Gust34.5 mph (6:15 pm)
Weather ElementAverage
Visibility9.1 mi
Wind DirectionWNW (289 °)

Weather ElementTotal
Precipitation---
Heating Degree Days52.8 (Base 65)
Averaged from 70 records on January 31, 2013
WEATHER CONDITIONS BREAKOUT
WIND DIRECTION BREAKOUT
WEATHER BY HOUR - JANUARY 31, 2013
[ °C ]   °F
Local TimeTemperatureDewpointHumidityBarometerVisibilityWind DirectionWind SpeedGust SpeedPrecipitationEventsConditions
12:35 AM19.4 °F15.8 °F86 %29.84 in10.0 miWSW (240°)8.1 mphOvercast
12:55 AM19.4 °F15.8 °F86 %29.84 in10.0 miWSW (250°)6.9 mphOvercast
1:15 AM19.4 °F15.8 °F86 %29.84 in10.0 miWest (260°)8.1 mphOvercast
1:35 AM21.2 °F15.8 °F80 %29.85 in10.0 miWest (260°)9.2 mph18.4 mphOvercast
1:55 AM21.2 °F17.6 °F86 %29.85 in10.0 miWest (270°)11.5 mphOvercast
2:15 AM21.2 °F15.8 °F80 %29.86 in10.0 miWest (270°)19.6 mph23.0 mphOvercast
2:35 AM21.2 °F15.8 °F80 %29.86 in10.0 miWNW (290°)11.5 mphSnowLight Snow
2:55 AM19.4 °F15.8 °F86 %29.87 in10.0 miWNW (290°)16.1 mph23.0 mphSnowLight Snow
3:15 AM19.4 °F15.8 °F86 %29.87 in10.0 miWNW (300°)13.8 mphSnowLight Snow
3:35 AM17.6 °F12.2 °F79 %29.88 in10.0 miWNW (300°)20.7 mph25.3 mphSnowLight Snow
3:55 AM15.8 °F10.4 °F79 %29.88 in10.0 miWNW (300°)20.7 mph24.2 mphOvercast
4:15 AM15.8 °F10.4 °F79 %29.88 in10.0 miWNW (290°)13.8 mph20.7 mphMostly Cloudy
4:35 AM15.8 °F8.6 °F73 %29.88 in10.0 miWNW (300°)13.8 mph23.0 mphScattered Clouds
4:55 AM14.0 °F8.6 °F79 %29.89 in10.0 miWNW (290°)13.8 mphClear
5:15 AM14.0 °F8.6 °F79 %29.89 in10.0 miWNW (290°)9.2 mph18.4 mphClear
5:35 AM14.0 °F8.6 °F79 %29.89 in10.0 miWNW (290°)13.8 mphClear
5:55 AM12.2 °F8.6 °F85 %29.90 in10.0 miWest (280°)10.4 mphClear
6:15 AM12.2 °F8.6 °F85 %29.90 in10.0 miWNW (290°)11.5 mphClear
6:35 AM12.2 °F8.6 °F85 %29.91 in10.0 miWNW (300°)13.8 mphScattered Clouds
6:55 AM12.2 °F8.6 °F85 %29.93 in10.0 miWNW (290°)10.4 mph18.4 mphMostly Cloudy
7:15 AM12.2 °F6.8 °F79 %29.93 in10.0 miWNW (300°)12.7 mph17.3 mphOvercast
7:35 AM10.4 °F6.8 °F85 %29.94 in10.0 miWNW (290°)15.0 mph20.7 mphSnowLight Snow
7:55 AM10.4 °F6.8 °F85 %29.95 in7.0 miWest (280°)13.8 mphSnowLight Snow
8:15 AM10.4 °F6.8 °F85 %29.96 in4.0 miWNW (290°)10.4 mphSnowLight Snow
8:35 AM10.4 °F6.8 °F85 %29.97 in5.0 miWest (280°)15.0 mph18.4 mphSnowLight Snow
8:55 AM10.4 °F6.8 °F85 %29.98 in4.0 miWNW (300°)15.0 mph19.6 mphSnowLight Snow
9:15 AM10.4 °F6.8 °F85 %29.99 in10.0 miWNW (290°)15.0 mph21.9 mphOvercast
9:35 AM10.4 °F6.8 °F85 %30.00 in5.0 miWest (280°)15.0 mph19.6 mphHaze
9:55 AM10.4 °F5.0 °F79 %30.01 in10.0 miWNW (290°)16.1 mph21.9 mphOvercast
10:15 AM10.4 °F5.0 °F79 %30.02 in10.0 miWest (280°)17.3 mph21.9 mphOvercast
10:35 AM10.4 °F3.2 °F73 %30.03 in10.0 miWNW (290°)17.3 mph23.0 mphMostly Cloudy
10:55 AM10.4 °F3.2 °F73 %30.05 in10.0 miWest (280°)17.3 mph24.2 mphMostly Cloudy
11:15 AM10.4 °F3.2 °F73 %30.05 in10.0 miWNW (300°)21.9 mph25.3 mphMostly Cloudy
11:35 AM10.4 °F3.2 °F73 %30.06 in10.0 miWest (280°)19.6 mph23.0 mphMostly Cloudy
11:55 AM10.4 °F1.4 °F67 %30.06 in10.0 miWNW (300°)16.1 mph25.3 mphMostly Cloudy
12:15 PM10.4 °F3.2 °F73 %30.06 in10.0 miWNW (290°)17.3 mph24.2 mphMostly Cloudy
12:35 PM10.4 °F3.2 °F73 %30.06 in7.0 miWNW (300°)20.7 mph26.5 mphMostly Cloudy
12:55 PM10.4 °F3.2 °F73 %30.06 in10.0 miWNW (300°)20.7 mph27.6 mphMostly Cloudy
1:15 PM10.4 °F3.2 °F73 %30.07 in7.0 miWNW (300°)18.4 mph26.5 mphOvercast
1:35 PM10.4 °F3.2 °F73 %30.08 in4.0 miWNW (300°)20.7 mph28.8 mphHaze
1:55 PM10.4 °F1.4 °F67 %30.09 in4.0 miWNW (290°)18.4 mph27.6 mphHaze
2:15 PM8.6 °F1.4 °F73 %30.10 in7.0 miWNW (290°)20.7 mph28.8 mphMostly Cloudy
2:35 PM10.4 °F3.2 °F73 %30.11 in7.0 miWNW (290°)19.6 mph24.2 mphOvercast
2:55 PM10.4 °F3.2 °F73 %30.12 in4.0 miWNW (300°)21.9 mph28.8 mphHaze
3:15 PM8.6 °F1.4 °F73 %30.13 in7.0 miWNW (300°)20.7 mph28.8 mphOvercast
3:35 PM8.6 °F-0.4 °F67 %30.14 in10.0 miNW (310°)20.7 mph31.1 mphOvercast
3:55 PM8.6 °F1.4 °F73 %30.15 in10.0 miWNW (300°)21.9 mph28.8 mphOvercast
4:15 PM8.6 °F1.4 °F73 %30.16 in2.5 miWNW (290°)20.7 mph33.4 mphHaze
4:35 PM6.8 °F-0.4 °F72 %30.17 in10.0 miWNW (300°)19.6 mph25.3 mphScattered Clouds
4:55 PM6.8 °F-0.4 °F72 %30.18 in10.0 miWNW (290°)17.3 mph29.9 mphScattered Clouds
5:15 PM6.8 °F-2.2 °F67 %30.19 in10.0 miWNW (300°)20.7 mph26.5 mphScattered Clouds
5:35 PM6.8 °F-4.0 °F61 %30.19 in10.0 miWNW (300°)18.4 mph28.8 mphClear
5:55 PM6.8 °F-2.2 °F67 %30.21 in10.0 miWNW (290°)20.7 mph25.3 mphClear
6:15 PM6.8 °F-2.2 °F67 %30.22 in10.0 miWNW (290°)23.0 mph34.5 mphScattered Clouds
6:35 PM5.0 °F-2.2 °F72 %30.23 in10.0 miWNW (290°)24.2 mph32.2 mphScattered Clouds
6:55 PM5.0 °F-5.8 °F61 %30.24 in10.0 miWNW (300°)17.3 mph27.6 mphScattered Clouds
7:15 PM5.0 °F-5.8 °F61 %30.25 in10.0 miWNW (300°)15.0 mph27.6 mphClear
7:35 PM3.2 °F-5.8 °F66 %30.25 in10.0 miWNW (300°)20.7 mph28.8 mphClear
7:55 PM3.2 °F-5.8 °F66 %30.26 in10.0 miWNW (290°)19.6 mph31.1 mphClear
8:15 PM3.2 °F-4.0 °F72 %30.27 in10.0 miWNW (290°)12.7 mph23.0 mphClear
8:35 PM3.2 °F-4.0 °F72 %30.27 in10.0 miWNW (290°)17.3 mph23.0 mphClear
8:55 PM3.2 °F-4.0 °F72 %30.29 in10.0 miWest (280°)11.5 mph19.6 mphScattered Clouds
9:15 PM3.2 °F-2.2 °F78 %30.30 in10.0 miWest (280°)15.0 mph19.6 mphOvercast
9:35 PM3.2 °F-2.2 °F78 %30.30 in10.0 miWNW (290°)19.6 mph25.3 mphOvercast
9:55 PM3.2 °F-2.2 °F78 %30.31 in10.0 miWest (280°)17.3 mph21.9 mphOvercast
10:15 PM3.2 °F-2.2 °F78 %30.31 in10.0 miWNW (290°)15.0 mph20.7 mphOvercast
10:35 PM3.2 °F-4.0 °F72 %30.32 in10.0 miWNW (290°)15.0 mph23.0 mphOvercast
10:55 PM3.2 °F-4.0 °F72 %30.32 in10.0 miWest (280°)13.8 mph23.0 mphOvercast
11:15 PM3.2 °F-4.0 °F72 %30.33 in10.0 miWNW (290°)12.7 mphMostly Cloudy
11:35 PM3.2 °F-4.0 °F72 %30.34 in10.0 miWest (280°)13.8 mph19.6 mphMostly Cloudy
Hourly data recorded from KFSW, located miles away from Niota, Illinois







STORIES FROM OUR PARTNERS